Weather History for Lakeland Region, FL

Change the Weather History Date:

Friday, July 5, 2013

  Actual Average Record
Temperature  
Mean Temperature 79 °F -  
Max Temperature 87 °F 88 °F 95 °F (1992)
Min Temperature 71 °F 71 °F 70 °F (1988)
Cooling Degree Days 14    
Growing Degree Days 29 (Base 50)    
Moisture  
Dew Point 71 °F    
Average Humidity 88    
Maximum Humidity 100    
Minimum Humidity 58    
Precipitation  
Precipitation 0.00 in - - ()
Sea Level Pressure  
Sea Level Pressure 30.13 in    
Wind  
Wind Speed 4 mph (ESE)    
Max Wind Speed 15 mph    
Max Gust Speed 20 mph    
Visibility 8 miles    
Events Rain    
Averages and records for this station are not official NWS values.
T = Trace of Precipitation, MM = Missing Value Source: NWS Daily Summary

Daily Weather History Graph

Daily Weather History Graph

Search for Another Location

Airport:

Trip Planner

Search our weather history database for the weather conditions in past years. The results will help you decide how hot, cold, wet, or windy it might be!

Date:

Astronomy

Jul. 05, 2013 Rise Set
Actual Time 6:36 AM EDT 8:28 PM EDT
Civil Twilight 6:10 AM EDT 8:54 PM EDT
Nautical Twilight 5:38 AM EDT 9:26 PM EDT
Astronomical Twilight 5:04 AM EDT 10:00 PM EDT
Moon 4:30 AM EDT (7/5) 6:26 PM EDT (7/5)
Length of Visible Light 14h 44m
Length of Day
13h 51m
Waning Crescent, 6% of the Moon is Illuminated
Jul 5
Waning Crescent
Jul 8
New
Jul 15
First Quarter
Jul 22
Full
Jul 29
Last Quarter

Hourly Weather History & Observations

Time (EDT) Temp. Heat Index Dew Point Humidity Pressure Visibility Wind Dir Wind Speed Gust Speed Precip Events Conditions
12:15 AM 71.6 °F - 69.8 °F 94% 30.18 in 1.8 mi Calm Calm - N/A   Overcast
12:35 AM 71.6 °F - 69.8 °F 94% 30.17 in 1.8 mi Calm Calm - N/A   Mostly Cloudy
12:55 AM 71.6 °F - 69.8 °F 94% 30.16 in 1.5 mi Calm Calm - N/A   Scattered Clouds
1:15 AM 71.6 °F - 69.8 °F 94% 30.16 in 2.5 mi Calm Calm - N/A   Clear
1:35 AM 71.6 °F - 69.8 °F 94% 30.14 in 4.0 mi NE 3.5 mph - N/A   Clear
1:55 AM 71.6 °F - 69.8 °F 94% 30.14 in 10.0 mi NE 3.5 mph - N/A   Clear
2:15 AM 71.6 °F - 69.8 °F 94% 30.13 in 10.0 mi Calm Calm - N/A   Clear
2:35 AM 71.6 °F - 69.8 °F 94% 30.13 in 7.0 mi Calm Calm - N/A   Clear
2:55 AM 71.6 °F - 69.8 °F 94% 30.13 in 7.0 mi East 3.5 mph - N/A   Clear
3:15 AM 71.6 °F - 69.8 °F 94% 30.12 in 7.0 mi East 3.5 mph - N/A   Clear
3:35 AM 71.6 °F - 69.8 °F 94% 30.11 in 5.0 mi ENE 3.5 mph - N/A   Clear
3:55 AM 71.6 °F - 71.6 °F 100% 30.11 in 5.0 mi East 5.8 mph - N/A   Clear
4:15 AM 73.4 °F - 71.6 °F 94% 30.10 in 5.0 mi East 5.8 mph - N/A   Clear
4:35 AM 73.4 °F - 71.6 °F 94% 30.10 in 5.0 mi East 5.8 mph - N/A   Clear
4:55 AM 73.4 °F - 71.6 °F 94% 30.09 in 5.0 mi East 4.6 mph - N/A   Clear
5:15 AM 73.4 °F - 71.6 °F 94% 30.10 in 5.0 mi East 4.6 mph - N/A   Clear
5:35 AM 73.4 °F - 71.6 °F 94% 30.11 in 5.0 mi East 5.8 mph - N/A   Clear
5:55 AM 73.4 °F - 71.6 °F 94% 30.11 in 5.0 mi East 5.8 mph - N/A   Clear
5:56 AM 75.2 °F - 73.4 °F 94% 30.11 in 5.0 mi East 5.8 mph - N/A   Scattered Clouds
6:15 AM 73.4 °F - 73.4 °F 100% 30.12 in 5.0 mi East 4.6 mph - N/A   Scattered Clouds
6:35 AM 73.4 °F - 73.4 °F 100% 30.12 in 7.0 mi East 5.8 mph - N/A   Clear
6:54 AM 75.2 °F - 73.4 °F 94% 30.12 in 5.0 mi East 5.8 mph - N/A   Mostly Cloudy
7:50 AM 77.0 °F - 75.2 °F 94% 30.13 in 6.0 mi ESE 6.9 mph - N/A   Scattered Clouds
8:50 AM 80.6 °F 86.2 °F 75.2 °F 84% 30.13 in 7.0 mi East 11.5 mph - N/A   Scattered Clouds
9:50 AM 82.4 °F 87.2 °F 71.6 °F 70% 30.14 in 10.0 mi ESE 12.7 mph - N/A   Mostly Cloudy
10:50 AM 82.4 °F 88.2 °F 73.4 °F 74% 30.15 in 12.0 mi SE 10.4 mph - N/A   Mostly Cloudy
11:50 AM 87.8 °F 93.8 °F 71.6 °F 58% 30.19 in 15.0 mi ESE 15.0 mph 19.6 mph N/A   Mostly Cloudy
12:50 PM 87.8 °F 93.8 °F 71.6 °F 58% 30.13 in 15.0 mi SE 11.5 mph 17.3 mph N/A   Mostly Cloudy
1:55 PM 77.0 °F - 71.6 °F 83% 30.15 in 4.0 mi SE 9.2 mph 19.6 mph N/A Rain Light Rain
2:50 PM 77.0 °F - 71.6 °F 83% 30.14 in 10.0 mi ESE 11.5 mph - N/A   Overcast
3:50 PM 78.8 °F - 71.6 °F 78% 30.11 in 12.0 mi SE 10.4 mph - N/A   Overcast
5:50 PM 80.6 °F 84.6 °F 71.6 °F 74% 30.09 in 12.0 mi SSE 4.6 mph - N/A   Mostly Cloudy
6:50 PM 82.4 °F 87.2 °F 71.6 °F 70% 30.10 in 12.0 mi SE 11.5 mph - N/A   Mostly Cloudy
7:50 PM 78.8 °F - 69.8 °F 74% 30.11 in 12.0 mi ESE 4.6 mph - N/A   Mostly Cloudy
8:50 PM 77.0 °F - 69.8 °F 78% 30.12 in 10.0 mi ESE 4.6 mph - N/A   Mostly Cloudy
9:50 PM 75.2 °F - 73.4 °F 94% 30.12 in 10.0 mi East 5.8 mph - N/A   Mostly Cloudy
10:55 PM 75.2 °F - 71.6 °F 89% 30.14 in 10.0 mi East 5.8 mph - N/A   Mostly Cloudy
11:15 PM 75.2 °F - 71.6 °F 89% 30.14 in 10.0 mi ESE 4.6 mph - N/A   Scattered Clouds
11:35 PM 75.2 °F - 71.6 °F 89% 30.14 in 10.0 mi South 4.6 mph - N/A   Mostly Cloudy
11:55 PM 75.2 °F - 71.6 °F 89% 30.13 in 10.0 mi Calm Calm - N/A   Scattered Clouds